Weather History for Mercury, NV

Change the Weather History Date:

Saturday, July 6, 2013

  Actual Average Record
Temperature  
Mean Temperature 91 °F -  
Max Temperature 102 °F 97 °F 111 °F (2007)
Min Temperature 82 °F 67 °F 64 °F (1997)
Cooling Degree Days 26    
Growing Degree Days 41 (Base 50)    
Moisture  
Dew Point 38 °F    
Average Humidity 14    
Maximum Humidity 25    
Minimum Humidity 4    
Precipitation  
Precipitation 0.00 in - - ()
Sea Level Pressure  
Sea Level Pressure 29.62 in    
Wind  
Wind Speed 8 mph (SSW)    
Max Wind Speed 20 mph    
Max Gust Speed 31 mph    
Visibility 10 miles    
Events      
Averages and records for this station are not official NWS values.
T = Trace of Precipitation, MM = Missing Value Source: NWS Daily Summary

Daily Weather History Graph

Daily Weather History Graph

Search for Another Location

Airport:

Trip Planner

Search our weather history database for the weather conditions in past years. The results will help you decide how hot, cold, wet, or windy it might be!

Date:

Astronomy

Jul. 06, 2013 Rise Set
Actual Time 5:31 AM PDT 8:05 PM PDT
Civil Twilight 5:01 AM PDT 8:35 PM PDT
Nautical Twilight 4:24 AM PDT 9:13 PM PDT
Astronomical Twilight 3:42 AM PDT 9:55 PM PDT
Moon 4:20 AM PDT (7/6) 6:52 PM PDT (7/6)
Length of Visible Light 15h 34m
Length of Day
14h 33m
Waning Crescent, 2% of the Moon is Illuminated
Jul 6
Waning Crescent
Jul 8
New
Jul 15
First Quarter
Jul 22
Full
Jul 29
Last Quarter

Hourly Weather History & Observations

Time (PDT) Temp. Dew Point Humidity Pressure Visibility Wind Dir Wind Speed Gust Speed Precip Events Conditions
12:52 AM 88.0 °F 44.1 °F 22% 29.60 in 10.0 mi South 6.9 mph - N/A   Clear
1:52 AM 88.0 °F 44.1 °F 22% 29.60 in 10.0 mi SSE 8.1 mph - N/A   Clear
2:52 AM 84.9 °F 43.0 °F 23% 29.60 in 10.0 mi Calm Calm - N/A   Clear
3:52 AM 82.0 °F 43.0 °F 25% 29.60 in 10.0 mi Calm Calm - N/A   Clear
4:52 AM 82.9 °F 39.9 °F 22% 29.60 in 10.0 mi ESE 5.8 mph - N/A   Clear
5:52 AM 87.1 °F 39.9 °F 19% 29.61 in 10.0 mi Calm Calm - N/A   Clear
6:52 AM 82.9 °F 41.0 °F 23% 29.62 in 10.0 mi NNW 3.5 mph - N/A   Clear
7:52 AM 87.1 °F 44.1 °F 22% 29.64 in 10.0 mi NW 8.1 mph - N/A   Clear
8:52 AM 93.0 °F 42.1 °F 17% 29.65 in 10.0 mi ENE 3.5 mph - N/A   Clear
9:52 AM 96.1 °F 39.9 °F 14% 29.65 in 10.0 mi Variable 5.8 mph - N/A   Clear
10:52 AM 96.1 °F 37.0 °F 13% 29.66 in 10.0 mi South 18.4 mph 28.8 mph N/A   Clear
11:52 AM 98.1 °F 33.1 °F 10% 29.66 in 10.0 mi SSW 15.0 mph 25.3 mph N/A   Clear
12:52 PM 99.0 °F 30.0 °F 9% 29.65 in 10.0 mi South 19.6 mph 26.5 mph N/A   Clear
1:52 PM 99.0 °F 34.0 °F 10% 29.64 in 10.0 mi SSW 19.6 mph 28.8 mph N/A   Clear
2:52 PM 98.1 °F 34.0 °F 11% 29.63 in 10.0 mi SSW 15.0 mph 31.1 mph N/A   Partly Cloudy
3:52 PM 102.0 °F 33.1 °F 9% 29.61 in 10.0 mi SSW 10.4 mph 20.7 mph N/A   Clear
4:52 PM 100.9 °F 30.9 °F 9% 29.60 in 10.0 mi SW 16.1 mph 28.8 mph N/A   Clear
5:52 PM 99.0 °F 34.0 °F 10% 29.58 in 10.0 mi SSW 11.5 mph 25.3 mph N/A   Clear
6:52 PM 98.1 °F 35.1 °F 11% 29.59 in 10.0 mi South 12.7 mph - N/A   Clear
7:52 PM 95.0 °F 35.1 °F 12% 29.60 in 10.0 mi SSW 9.2 mph - N/A   Clear
8:52 PM 93.0 °F 36.0 °F 13% 29.60 in 10.0 mi SSW 10.4 mph - N/A   Clear
9:52 PM 93.0 °F 37.9 °F 15% 29.62 in 10.0 mi SSW 15.0 mph - N/A   Clear
10:52 PM 91.0 °F 37.9 °F 15% 29.62 in 10.0 mi ESE 9.2 mph - N/A   Clear
11:52 PM 89.1 °F 37.9 °F 16% 29.63 in 10.0 mi SW 6.9 mph - N/A   Clear